Weather in Koyanovo

Russia / Perm Krai     57°47′35″N   56°19′07″E
temp.,
°C
wind,
m/s
gust,
m/s
humid.,
%
clouds,
%
prec.,
mm/h
press.,
hPa
HPBL,
m
1 march, mon
mon123:00−16ene3895100 0.5 1013437
02:00−17ene3797100 0.3 1014269
05:00−17ne259796 0.4 1016173
08:00−20ne2410092 0.1 101790
11:00−17ene239289 0.1 1018276
14:00−12e128499 0.0 1017463
17:00−12n1086100 0.1 1017373
20:00−17s1298100 0.0 101620
2 march, tue
tue223:00−18sw349797 0.1 101567
02:00−18ssw389755 0.0 1012183
05:00−16ssw4119278 0.0 1010363
08:00−15ssw51192100 0.1 1007414
11:00−14ssw61292100 0.4 1004485
14:00−12ssw61191100 0.5 1001567
17:00−11s51092100 1.1 1000600
20:00−11s41095100 0.5 998504
3 march, wed
wed323:00−9s3995100 1.6 997456
02:00−9se2796100 1.9 995294
05:00−9ese2296100 2.8 99552
08:00−9n1197100 0.4 99422
11:00−8nw2495100 0.5 995226
14:00−5wnw2490100 0.0 995414
17:00−4w249199 0.1 996447
20:00−6sw3696100 0.3 996176
4 march, thu
thu423:00−6wnw499599 0.8 997406
02:00−9wnw499490 0.3 997294
05:00−13w389587 0.4 998165
08:00−14wsw379673 0.1 999157
11:00−10wsw489069 0.1 1000370
14:00−7wsw578775 0.0 999634
17:00−7wsw588888 0.1 999728
20:00−9ssw41091100 0.1 997422
5 march, fri
fri523:00−8s41194100 0.3 995562
02:00−6s61393100 0.8 991742
05:00−4ssw51294100 1.6 988655
08:00−3ssw3997100 1.4 985507
11:00−4wsw61182100 3.9 986962
14:00−6w81290100 0.2 9911011
17:00−7wnw81388100 0.5 998942
20:00−11wnw51289100 0.1 1003691